TimeCST,TemperatureF,Dew PointF,Humidity,Sea Level PressureIn,VisibilityMPH,Wind Direction,Wind SpeedMPH,Gust SpeedMPH,PrecipitationIn,Events,Conditions,WindDirDegrees,DateUTC
12:15 AM,24.8,10.4,54,30.69,10.0,ENE,3.5,-,N/A,,Clear,70,2013-11-13 06:15:00
12:35 AM,24.8,10.4,54,30.69,10.0,ENE,4.6,-,N/A,,Clear,70,2013-11-13 06:35:00
12:55 AM,24.8,10.4,54,-9999,10.0,North,-9999.0,-,N/A,,Clear,0,2013-11-13 06:55:00
1:15 AM,24.8,10.4,54,30.68,10.0,ENE,6.9,-,N/A,,Clear,60,2013-11-13 07:15:00
1:35 AM,24.8,10.4,54,30.68,10.0,Calm,Calm,-,N/A,,Clear,0,2013-11-13 07:35:00
1:55 AM,24.8,10.4,54,30.68,10.0,Calm,Calm,-,N/A,,Clear,0,2013-11-13 07:55:00
2:15 AM,24.8,10.4,54,30.68,10.0,East,3.5,-,N/A,,Clear,100,2013-11-13 08:15:00
2:35 AM,23.0,10.4,59,30.68,10.0,Calm,Calm,-,N/A,,Clear,0,2013-11-13 08:35:00
2:55 AM,21.2,12.2,68,30.68,10.0,ESE,3.5,-,N/A,,Clear,110,2013-11-13 08:55:00
3:15 AM,21.2,10.4,63,30.67,10.0,East,3.5,-,N/A,,Clear,100,2013-11-13 09:15:00
3:35 AM,21.2,10.4,63,30.67,10.0,ESE,4.6,-,N/A,,Clear,120,2013-11-13 09:35:00
3:55 AM,21.2,12.2,68,30.66,10.0,ESE,5.8,-,N/A,,Clear,110,2013-11-13 09:55:00
4:15 AM,21.2,10.4,63,30.65,10.0,ESE,4.6,-,N/A,,Clear,110,2013-11-13 10:15:00
4:35 AM,21.2,12.2,68,30.65,10.0,ESE,3.5,-,N/A,,Clear,110,2013-11-13 10:35:00
4:55 AM,21.2,12.2,68,30.65,6.0,East,3.5,-,N/A,,Clear,100,2013-11-13 10:55:00
5:15 AM,21.2,12.2,68,30.65,10.0,East,3.5,-,N/A,,Clear,100,2013-11-13 11:15:00
5:35 AM,21.2,12.2,68,30.65,10.0,ESE,4.6,-,N/A,,Clear,110,2013-11-13 11:35:00
5:55 AM,21.2,12.2,68,30.65,10.0,Calm,Calm,-,N/A,,Clear,0,2013-11-13 11:55:00
6:15 AM,21.2,12.2,68,30.66,10.0,Calm,Calm,-,N/A,,Clear,0,2013-11-13 12:15:00
6:35 AM,21.2,12.2,68,30.66,10.0,Calm,Calm,-,N/A,,Clear,0,2013-11-13 12:35:00
6:55 AM,21.2,12.2,68,30.66,10.0,East,3.5,-,N/A,,Clear,90,2013-11-13 12:55:00
7:15 AM,21.2,12.2,68,30.67,10.0,East,4.6,-,N/A,,Clear,90,2013-11-13 13:15:00
7:35 AM,21.2,12.2,68,30.66,10.0,SE,3.5,-,N/A,,Clear,140,2013-11-13 13:35:00
7:55 AM,24.8,15.8,69,30.66,10.0,ESE,4.6,-,N/A,,Clear,120,2013-11-13 13:55:00
8:15 AM,26.6,15.8,64,30.66,10.0,Calm,Calm,-,N/A,,Clear,0,2013-11-13 14:15:00
8:35 AM,28.4,17.6,64,30.66,10.0,South,5.8,-,N/A,,Clear,190,2013-11-13 14:35:00
8:55 AM,30.2,15.8,55,30.64,10.0,South,13.8,-,N/A,,Clear,190,2013-11-13 14:55:00
9:15 AM,33.8,17.6,52,30.64,10.0,SSW,11.5,-,N/A,,Clear,200,2013-11-13 15:15:00
9:35 AM,33.8,17.6,52,30.64,10.0,SSW,15.0,-,N/A,,Clear,200,2013-11-13 15:35:00
9:55 AM,37.4,17.6,45,30.63,10.0,SSW,15.0,-,N/A,,Clear,200,2013-11-13 15:55:00
10:15 AM,37.4,17.6,45,30.63,10.0,South,12.7,-,N/A,,Clear,190,2013-11-13 16:15:00
10:35 AM,39.2,17.6,42,30.62,10.0,South,13.8,-,N/A,,Clear,190,2013-11-13 16:35:00
10:55 AM,41.0,17.6,39,30.62,10.0,South,12.7,-,N/A,,Clear,190,2013-11-13 16:55:00
11:15 AM,42.8,15.8,34,30.61,10.0,South,13.8,-,N/A,,Clear,190,2013-11-13 17:15:00
11:35 AM,42.8,17.6,36,30.59,10.0,South,10.4,-,N/A,,Clear,180,2013-11-13 17:35:00
11:55 AM,44.6,17.6,34,30.57,10.0,South,13.8,-,N/A,,Clear,190,2013-11-13 17:55:00
12:15 PM,44.6,17.6,34,30.55,10.0,South,10.4,17.3,N/A,,Clear,190,2013-11-13 18:15:00
12:35 PM,44.6,17.6,34,30.54,10.0,SSW,11.5,-,N/A,,Clear,200,2013-11-13 18:35:00
12:55 PM,46.4,17.6,32,30.53,10.0,South,13.8,17.3,N/A,,Clear,180,2013-11-13 18:55:00
1:15 PM,46.4,19.4,34,30.51,7.0,South,9.2,-,N/A,,Clear,190,2013-11-13 19:15:00
1:35 PM,46.4,15.8,29,30.50,10.0,SSW,9.2,-,N/A,,Clear,210,2013-11-13 19:35:00
1:55 PM,48.2,17.6,30,30.49,10.0,South,8.1,-,N/A,,Clear,190,2013-11-13 19:55:00
2:15 PM,48.2,17.6,30,30.48,10.0,SSW,6.9,-,N/A,,Clear,210,2013-11-13 20:15:00
2:35 PM,48.2,19.4,32,30.47,10.0,South,10.4,-,N/A,,Clear,190,2013-11-13 20:35:00
2:55 PM,48.2,19.4,32,30.46,10.0,South,11.5,17.3,N/A,,Clear,190,2013-11-13 20:55:00
3:15 PM,48.2,19.4,32,30.46,10.0,SSW,8.1,-,N/A,,Clear,200,2013-11-13 21:15:00
3:35 PM,48.2,17.6,30,30.45,10.0,SSW,8.1,-,N/A,,Clear,210,2013-11-13 21:35:00
3:55 PM,48.2,19.4,32,30.44,10.0,South,9.2,-,N/A,,Clear,190,2013-11-13 21:55:00
4:15 PM,46.4,19.4,34,30.43,10.0,South,11.5,-,N/A,,Clear,190,2013-11-13 22:15:00
4:35 PM,46.4,19.4,34,30.43,10.0,South,9.2,-,N/A,,Clear,190,2013-11-13 22:35:00
4:55 PM,44.6,17.6,34,30.42,10.0,South,6.9,-,N/A,,Clear,180,2013-11-13 22:55:00
5:15 PM,42.8,17.6,36,30.41,10.0,South,5.8,-,N/A,,Clear,180,2013-11-13 23:15:00
5:35 PM,41.0,17.6,39,30.41,10.0,South,6.9,-,N/A,,Clear,170,2013-11-13 23:35:00
5:55 PM,41.0,17.6,39,30.41,10.0,South,6.9,-,N/A,,Clear,170,2013-11-13 23:55:00
6:15 PM,39.2,17.6,42,30.41,10.0,South,6.9,-,N/A,,Clear,170,2013-11-14 00:15:00
6:35 PM,39.2,17.6,42,30.40,10.0,SSE,9.2,-,N/A,,Clear,160,2013-11-14 00:35:00
6:55 PM,37.4,17.6,45,30.40,10.0,South,8.1,-,N/A,,Clear,170,2013-11-14 00:55:00
7:15 PM,37.4,15.8,41,30.40,10.0,South,6.9,-,N/A,,Clear,170,2013-11-14 01:15:00
7:35 PM,37.4,15.8,41,30.39,10.0,South,6.9,-,N/A,,Clear,170,2013-11-14 01:35:00
7:55 PM,37.4,15.8,41,30.39,10.0,South,6.9,-,N/A,,Clear,170,2013-11-14 01:55:00
8:15 PM,35.6,15.8,44,30.39,10.0,SSE,8.1,-,N/A,,Clear,160,2013-11-14 02:15:00
8:35 PM,35.6,15.8,44,30.38,10.0,SSE,9.2,-,N/A,,Clear,160,2013-11-14 02:35:00
8:55 PM,35.6,15.8,44,30.38,10.0,SSE,8.1,-,N/A,,Clear,160,2013-11-14 02:55:00
9:15 PM,33.8,15.8,48,30.37,10.0,SSE,6.9,-,N/A,,Clear,160,2013-11-14 03:15:00
9:35 PM,33.8,15.8,48,30.37,10.0,South,6.9,-,N/A,,Clear,180,2013-11-14 03:35:00
9:55 PM,33.8,15.8,48,30.36,10.0,South,3.5,-,N/A,,Clear,170,2013-11-14 03:55:00
10:15 PM,35.6,15.8,44,30.35,10.0,Calm,Calm,-,N/A,,Clear,0,2013-11-14 04:15:00
10:35 PM,33.8,15.8,48,30.35,10.0,South,8.1,-,N/A,,Clear,190,2013-11-14 04:35:00
10:55 PM,35.6,17.6,48,30.35,10.0,South,11.5,-,N/A,,Clear,180,2013-11-14 04:55:00
11:15 PM,35.6,17.6,48,30.34,10.0,South,12.7,-,N/A,,Clear,190,2013-11-14 05:15:00
11:35 PM,33.8,17.6,52,30.34,10.0,South,13.8,-,N/A,,Clear,180,2013-11-14 05:35:00
11:55 PM,37.4,17.6,45,30.33,10.0,South,10.4,-,N/A,,Clear,180,2013-11-14 05:55:00